Showing default

QIANFAN-86, 63172

Orbit data source: Space-Track

QIANFAN-86, 63172 is a Chinese payload satellite in LEO that was launched on Tue, 11 Mar 2025 UTC via a CHANG ZHENG 8 launch vehicle from the Wenchang Satellite Launch Center (WSC). Payload-class satellites include a variety of spacecraft equipped with specific instruments for various scientific and technological missions. These include communications satellites like Starlink; space stations such as the ISS; scientific satellites like the Hubble; Earth observation satellites from companies like Planet Labs, Umbra, and HawkEye 360; GPS; miniature CubeSats for education and research; and military/defense satellites.

Loading next visibility...
Identifier
63172, 2025-046P
Orbit
LEO
Country
Flag of CNCN / PRC
Related business
Manufacturer
GESIH
Mission
Operational Commercial Communications
Bus & Motor
QIANFAN, Unknown motor
Mass
267 kg wet, ~267 kg dry
Launch date (UTC)
2025-03-11 (1 year ago)
Launch vehicle
CHANG ZHENG 8
Launch site
Wenchang Satellite Launch Center (WSC)
Object type
Payload
Rocket body
Debris
Shape & HBR
Box + 1 Pan, 1.5 m
Radar Cross Section
13.200 m², Large (>1 m²)

Expand to show TLE details & history
Last TLE update: 14 hours ago

TLE from 14 hours ago
0 QIANFAN-86
1 63172U 25046P   26171.38026814  .00000132  00000-0  18592-3 0  9999
2 63172  88.9715 300.1166 0009081 307.9642  52.0688 13.51017268 73154
Epoch: 2026-06-20T09:07Z
TLE epoch observation values (Epoch: 2026-06-20T09:07:35.167Z)
Latitude
-0.00002°
Longitude
-105.37565°
Altitude
1,067.317 km
Speed
7.32 km/s
True Right ascension
20h 00m 27s
True Declination
0° 00' 00"
Sunlit
Object was in full shadow at epoch
Visualization orbit readout
Latitude
Unknown
Longitude
Unknown
Altitude
Unknown
Speed
Unknown
Apparent Right ascension
Unknown
Apparent Declination
Unknown
Sunlit
N/A
Visualization observer readout
Local Sidereal Time
10:18:32
Azimuth
Unknown
Elevation
Unknown
Doppler factor
Unknown
Orbital elements
Apogee altitude
1,072.329 km
Perigee altitude
1,058.81 km
Semi-major axis
7,443.706 km
Eccentricity
0.00091
Inclination
88.9715°
RAAN
300.1166°
Arg. of periapsis
307.9642°
True anomaly
52.15094°
Mean anomaly
52.0688°
Eccentric anomaly
52.10986°
Mean motion
3.37955 °/min
Orbital period
106.52 mins
BSTAR
0.00018592
Loading maneuver chart data...
Computing Atmospheric mass density...
Loading historical data...
Loading historical data...
Loading historical data...
Loading historical data...
Loading historical data...
Loading historical data...
Loading historical data...

Documentation

Showing up to 5 results
|